Showing default

FORMOSAT-8A, 66666

Orbit data source: Space-Track

FORMOSAT-8A, 66666 is a payload satellite owned by TASA (TW) in SSO that was launched on Fri, 28 Nov 2025 UTC via an FALCON 9 launch vehicle from the Air Force Western Test Range (AFWTR). Payload-class satellites include a variety of spacecraft equipped with specific instruments for various scientific and technological missions. These include communications satellites like Starlink; space stations such as the ISS; scientific satellites like the Hubble; Earth observation satellites from companies like Planet Labs, Umbra, and HawkEye 360; GPS; miniature CubeSats for education and research; and military/defense satellites.

Loading next visibility...
Identifier
66666, 2025-276A
Orbit
SSO
Country
Flag of TWTW / TWN
Related business
Manufacturer
TASA
Mission
Operational Civil Imaging/Sci
Bus & Motor
FS8, AOCS
Mass
380 kg wet, 380 kg dry
Launch date (UTC)
2025-11-28 (2 months ago)
Launch vehicle
FALCON 9
Launch site
Air Force Western Test Range (AFWTR)
Object type
Payload
Rocket body
Debris
Shape & HBR
Box + 2 Pan, 2.2 m
Radar Cross Section
3.681 m²

Expand to show TLE details & history
Last TLE update: 22 hours ago

TLE from 22 hours ago
0 FORMOSAT-8A
1 66666U 25276A   26034.21652246  .00002770  00000-0  21932-3 0  9991
2 66666  97.6547 110.4218 0006701  50.6104 309.5713 15.01392101  9962
Epoch: 2026-02-03T05:11Z
TLE epoch observation values (Epoch: 2026-02-03T05:11:47.540Z)
Latitude
-0.00001°
Longitude
-100.92692°
Altitude
562.699 km
Speed
7.582 km/s
True Right ascension
07h 21m 41s
True Declination
0° 00' 00"
Sunlit
Object was in full shadow at epoch
Visualization orbit readout
Latitude
Unknown
Longitude
Unknown
Altitude
Unknown
Speed
Unknown
Apparent Right ascension
Unknown
Apparent Declination
Unknown
Sunlit
N/A
Visualization observer readout
Local Sidereal Time
05:37:28
Azimuth
Unknown
Elevation
Unknown
Doppler factor
Unknown
Orbital elements
Apogee altitude
564.253 km
Perigee altitude
554.955 km
Semi-major axis
6,937.741 km
Eccentricity
0.00067
Inclination
97.6547°
RAAN
110.4218°
Arg. of periapsis
50.6104°
True anomaly
309.51208°
Mean anomaly
309.5713°
Eccentric anomaly
309.54169°
Mean motion
3.75592 °/min
Orbital period
95.85 mins
BSTAR
0.00021932
Loading maneuver chart data...
Computing Atmospheric mass density...
Loading historical data...
Loading historical data...
Loading historical data...
Loading historical data...
Loading historical data...
Loading historical data...
Loading historical data...

Documentation

Showing up to 5 results
|